Location: Auttagershofen
(48.1940°N, 10.0237°E)
Time: 06:49:29
(UTC+00:00)

Cosmos 2181 Rocket - Pass Details

Date: 18 January 2026
Orbit: 952 x 1013 km, 82.9° (Epoch: 17 February)

Event Time Altitude Azimuth Distance (km) Brightness Sun altitude
Rises 04:46:44 0° 346° (NNW) 3,725 6.9 -22.3°
Reaches altitude 10° 04:49:20 10° 342° (NNW) 2,779 6.1 -21.9°
Maximum altitude 04:55:26 49° 270° (W) 1,277 4.2 -20.9°
Drops below altitude 10° 05:01:33 10° 197° (SSW) 2,786 6.3 -19.8°
Sets 05:04:10 0° 192° (SSW) 3,734 7.0 -19.4°
